Weather History for Wilmington, NC

Change the Weather History Date:

Monday, March 18, 2013

  Actual Average Record
Temperature  
Mean Temperature 56 °F 56 °F  
Max Temperature 64 °F 67 °F 84 °F (1963)
Min Temperature 48 °F 44 °F 29 °F (1941)
Degree Days  
Heating Degree Days 9 10  
Month to date heating degree days 260 215  
Since 1 July heating degree days 2067 2144  
Cooling Degree Days 0 1  
Month to date cooling degree days 2 3  
Year to date cooling degree days 14 8  
Growing Degree Days 6 (Base 50)    
Moisture  
Dew Point 47 °F    
Average Humidity 77    
Maximum Humidity 93    
Minimum Humidity 60    
Precipitation  
Precipitation 0.00 in 0.13 in 1.84 in (1871)
Month to date precipitation 0.56 2.52  
Year to date precipitation 7.83 9.90  
Snow  
Snow 0.00 in 0.00 in T in (1902)
Month to date snowfall 0.0 0.1  
Since 1 July snowfall T 1.6  
Snow Depth 0.00 in    
Sea Level Pressure  
Sea Level Pressure 30.04 in    
Wind  
Wind Speed 5 mph (ENE)    
Max Wind Speed 13 mph    
Max Gust Speed 16 mph    
Visibility 10 miles    
Events      
T = Trace of Precipitation, MM = Missing Value Source: NWS Daily Summary

Daily Weather History Graph

Daily Weather History Graph

Search for Another Location

Airport:

Trip Planner

Search our weather history database for the weather conditions in past years. The results will help you decide how hot, cold, wet, or windy it might be!

Date:

Astronomy

Mar. 18, 2013 Rise Set
Actual Time 7:17 AM EDT 7:21 PM EDT
Civil Twilight 6:52 AM EDT 7:46 PM EDT
Nautical Twilight 6:23 AM EDT 8:16 PM EDT
Astronomical Twilight 5:54 AM EDT 8:45 PM EDT
Moon 11:30 AM EDT (3/18) 1:05 AM EDT (3/18)
Length of Visible Light 12h 54m
Length of Day
12h 04m
Waxing Crescent, 40% of the Moon is Illuminated
Mar 18
Waxing Crescent
Mar 19
First Quarter
Mar 27
Full
Apr 3
Last Quarter
Apr 10
New

Hourly Weather History & Observations

Time (EDT) Temp. Dew Point Humidity Pressure Visibility Wind Dir Wind Speed Gust Speed Precip Events Conditions
12:07 AM 50.0 °F 44.6 °F 82% 30.12 in 10.0 mi ENE 12.7 mph 19.6 mph N/A   Mostly Cloudy
12:53 AM 50.0 °F 44.1 °F 80% 30.12 in 10.0 mi ENE 9.2 mph - N/A   Overcast
1:53 AM 48.9 °F 43.0 °F 80% 30.12 in 10.0 mi NE 9.2 mph - N/A   Scattered Clouds
2:09 AM 48.2 °F 42.8 °F 82% 30.12 in 10.0 mi NE 5.8 mph - N/A   Mostly Cloudy
2:33 AM 48.2 °F 42.8 °F 82% 30.11 in 10.0 mi NE 6.9 mph - N/A   Mostly Cloudy
2:53 AM 48.0 °F 42.1 °F 80% 30.10 in 10.0 mi NE 8.1 mph - N/A   Overcast
3:10 AM 48.2 °F 42.8 °F 82% 30.10 in 10.0 mi NE 8.1 mph - N/A   Overcast
3:53 AM 48.0 °F 42.1 °F 80% 30.09 in 10.0 mi NE 6.9 mph - N/A   Overcast
4:53 AM 48.0 °F 42.1 °F 80% 30.09 in 10.0 mi NE 4.6 mph - N/A   Overcast
5:27 AM 48.2 °F 42.8 °F 82% 30.08 in 10.0 mi NE 4.6 mph - N/A   Overcast
5:34 AM 48.2 °F 42.8 °F 82% 30.08 in 10.0 mi NNE 5.8 mph - N/A   Overcast
5:53 AM 48.0 °F 43.0 °F 83% 30.09 in 10.0 mi NNE 4.6 mph - N/A   Overcast
6:12 AM 48.2 °F 42.8 °F 82% 30.09 in 10.0 mi NNE 5.8 mph - N/A   Overcast
6:53 AM 48.9 °F 44.1 °F 83% 30.12 in 10.0 mi North 6.9 mph - N/A   Overcast
7:53 AM 48.0 °F 43.0 °F 83% 30.12 in 10.0 mi NNE 6.9 mph - N/A   Overcast
8:53 AM 50.0 °F 44.1 °F 80% 30.13 in 10.0 mi NNE 9.2 mph - N/A   Overcast
9:53 AM 51.1 °F 44.1 °F 77% 30.14 in 10.0 mi NNE 8.1 mph - N/A   Overcast
10:53 AM 53.1 °F 45.0 °F 74% 30.12 in 10.0 mi NE 5.8 mph - N/A   Overcast
11:46 AM 57.2 °F 46.4 °F 67% 30.10 in 10.0 mi Calm Calm - N/A   Scattered Clouds
11:53 AM 57.9 °F 46.9 °F 67% 30.10 in 10.0 mi Calm Calm - N/A   Scattered Clouds
12:53 PM 63.0 °F 48.0 °F 58% 30.08 in 10.0 mi Variable 3.5 mph - N/A   Scattered Clouds
1:53 PM 63.0 °F 50.0 °F 63% 30.04 in 10.0 mi Variable 5.8 mph - N/A   Clear
2:53 PM 63.0 °F 50.0 °F 63% 30.01 in 10.0 mi SE 9.2 mph - N/A   Clear
3:53 PM 63.0 °F 51.1 °F 65% 29.98 in 10.0 mi ESE 9.2 mph - N/A   Partly Cloudy
4:53 PM 60.1 °F 51.1 °F 72% 29.98 in 10.0 mi ESE 6.9 mph - N/A   Mostly Cloudy
5:53 PM 57.0 °F 51.1 °F 81% 29.97 in 10.0 mi ESE 6.9 mph - N/A   Overcast
6:53 PM 55.9 °F 51.1 °F 84% 29.96 in 10.0 mi SSE 3.5 mph - N/A   Overcast
7:03 PM 55.4 °F 51.8 °F 88% 29.96 in 10.0 mi ESE 5.8 mph - N/A   Overcast
7:10 PM 55.4 °F 51.8 °F 88% 29.95 in 10.0 mi ESE 5.8 mph - N/A   Overcast
7:53 PM 55.0 °F 51.1 °F 86% 29.94 in 10.0 mi ESE 4.6 mph - N/A   Partly Cloudy
8:25 PM 53.6 °F 51.8 °F 94% 29.93 in 10.0 mi Calm Calm - N/A   Mostly Cloudy
8:34 PM 53.6 °F 51.8 °F 94% 29.93 in 10.0 mi Calm Calm - N/A   Mostly Cloudy
8:53 PM 54.0 °F 51.1 °F 90% 29.93 in 10.0 mi Calm Calm - N/A   Mostly Cloudy
9:17 PM 53.6 °F 51.8 °F 94% 29.95 in 9.0 mi Calm Calm - N/A   Mostly Cloudy
9:53 PM 55.0 °F 52.0 °F 89% 29.90 in 10.0 mi ESE 3.5 mph - N/A   Overcast
10:51 PM 55.4 °F 51.8 °F 88% 29.91 in 10.0 mi NNW 3.5 mph - N/A   Scattered Clouds
10:53 PM 55.0 °F 52.0 °F 89% 29.91 in 10.0 mi North 3.5 mph - N/A   Scattered Clouds
11:53 PM 55.0 °F 53.1 °F 93% 29.90 in 9.0 mi Calm Calm - N/A   Overcast